Monroe, NC

8:24 AM EST on December 16, 2017 (GMT -0500)
Monroe

Weather History for KEQY - January, 2012

Change the Weather History Date:

Friday, January 6, 2012

  Actual Average (KCLT) Record (KCLT)
Temperature  
Mean Temperature 49 °F -  
Max Temperature 64 °F 48 °F 73 °F (1950)
Min Temperature 34 °F 32 °F 5 °F (1884)
Degree Days  
Heating Degree Days 16    
Moisture  
Dew Point 29 °F    
Average Humidity 51    
Maximum Humidity 75    
Minimum Humidity 28    
Precipitation  
Precipitation 0.00 in - - ()
Sea Level Pressure  
Sea Level Pressure 30.08 in    
Wind  
Wind Speed 6 mph (SW)    
Max Wind Speed 12 mph    
Max Gust Speed -    
Visibility 10 miles    
Events      
Averages and records for this station are not official NWS values.
T = Trace of Precipitation, MM = Missing Value Source: NWS Daily Summary

Daily Weather History Graph

Daily Weather History Graph

Search for Another Location

Airport or City:

Trip Planner

Search our weather history database for the weather conditions in past years. The results will help you decide how hot, cold, wet, or windy it might be!

Date:

Astronomy

Jan. 06, 2012 Rise Set
Actual Time 7:31 AM EST 5:25 PM EST
Civil Twilight 7:03 AM EST 5:53 PM EST
Nautical Twilight 6:31 AM EST 6:24 PM EST
Astronomical Twilight 6:01 AM EST 6:55 PM EST
Moon 3:15 PM EST (1/6) 5:08 AM EST (1/6)
Length of Visible Light 10h 50m
Length of Day
9h 54m
Waxing Gibbous, 93% of the Moon is Illuminated
Jan 6
Waxing Gibbous
Jan 9
Full
Jan 16
Last Quarter
Jan 23
New
Jan 30
First Quarter

Hourly Weather History & Observations

Time (EST) Temp. Windchill Dew Point Humidity Pressure Visibility Wind Dir Wind Speed Gust Speed Precip Events Conditions
12:53 AM 39.0 °F 34.8 °F 27.0 °F 62% 30.11 in 10.0 mi SW 5.8 mph - N/A   Clear
1:53 AM 41.0 °F 37.1 °F 27.0 °F 57% 30.10 in 10.0 mi SW 5.8 mph - N/A   Clear
3:53 AM 39.0 °F 34.0 °F 27.0 °F 62% 30.10 in 10.0 mi WSW 6.9 mph - N/A   Clear
4:53 AM 35.1 °F 30.1 °F 27.0 °F 72% 30.10 in 10.0 mi WSW 5.8 mph - N/A   Clear
5:53 AM 36.0 °F 33.3 °F 27.0 °F 70% 30.11 in 10.0 mi West 3.5 mph - N/A   Clear
6:53 AM 34.0 °F - 27.0 °F 75% 30.12 in 10.0 mi Calm Calm - N/A   Clear
7:53 AM 34.0 °F 29.8 °F 27.0 °F 75% 30.13 in 10.0 mi WSW 4.6 mph - N/A   Clear
8:53 AM 39.0 °F 35.7 °F 30.0 °F 70% 30.14 in 10.0 mi SW 4.6 mph - N/A   Clear
9:53 AM 45.0 °F 41.8 °F 30.0 °F 56% 30.15 in 10.0 mi WSW 5.8 mph - N/A   Clear
10:53 AM 52.0 °F - 30.0 °F 43% 30.13 in 10.0 mi Variable 4.6 mph - N/A   Clear
11:53 AM 57.0 °F - 32.0 °F 39% 30.10 in 10.0 mi Variable 3.5 mph - N/A   Clear
12:53 PM 60.1 °F - 28.9 °F 31% 30.06 in 10.0 mi SW 6.9 mph - N/A   Clear
1:53 PM 63.0 °F - 30.0 °F 29% 30.04 in 10.0 mi SW 10.4 mph - N/A   Clear
2:53 PM 64.0 °F - 30.0 °F 28% 30.04 in 10.0 mi SW 11.5 mph - N/A   Clear
3:53 PM 63.0 °F - 28.9 °F 28% 30.03 in 10.0 mi SW 9.2 mph - N/A   Clear
4:53 PM 60.1 °F - 30.9 °F 33% 30.04 in 10.0 mi SW 8.1 mph - N/A   Clear
6:53 PM 53.1 °F - 30.9 °F 43% 30.06 in 10.0 mi Calm Calm - N/A   Clear
7:53 PM 52.0 °F - 32.0 °F 47% 30.06 in 10.0 mi SW 8.1 mph - N/A   Clear
8:53 PM 51.1 °F - 32.0 °F 48% 30.06 in 10.0 mi SW 8.1 mph - N/A   Clear
9:53 PM 51.1 °F - 30.9 °F 46% 30.05 in 10.0 mi SW 8.1 mph - N/A   Clear
10:53 PM 48.9 °F - 30.9 °F 50% 30.04 in 10.0 mi SW 9.2 mph - N/A   Clear
11:53 PM 48.0 °F - 30.9 °F 52% 30.01 in 10.0 mi SW 10.4 mph - N/A   Clear